Location: Unspecified
(0.0000°N, 0.0000°E)
Time: 18:46:13
(UTC+00:00)

Vanguard 2 Rocket - Pass Details

Date: 25 November 2019
Orbit: 554 x 3326 km, 32.9° (Epoch: 05 December)

Event Time Altitude Azimuth Distance (km) Brightness Sun altitude
Rises 14:49:22 0° 225° (SW) 7,315 12.3 40.9°
Reaches altitude 10° 14:56:28 10° 211° (SSW) 6,171 12.0 39.3°
Maximum altitude 15:09:57 23° 166° (SSE) 4,473 10.8 36.3°
Drops below altitude 10° 15:20:07 10° 119° (ESE) 4,623 10.3 34.0°
Sets 15:24:17 0° 104° (ESE) 5,185 10.4 33.0°
